Location: Redding Observatory
(29.1111°N, 81.3442°W)
Time: 20:43:55
(UTC-05:00)

Envisat - Visible Passes

Search period start: 20 January 2022 00:00
Search period end: 30 January 2022 00:00
Orbit: 764 x 766 km, 98.2° (Epoch: 20 January)

Date Brightness Start Highest point End Pass type
(mag) Time Alt. Az. Time Alt. Az. Time Alt. Az.
20 Jan 3.8 04:49:39 10° NNE 04:54:33 48° E 04:59:26 10° S visible
20 Jan 4.5 06:30:25 10° NW 06:33:05 14° WNW 06:35:46 10° W visible
21 Jan 5.4 04:13:58 10° NE 04:17:33 19° E 04:21:07 10° SE visible
21 Jan 3.5 05:51:59 10° N 05:56:34 35° WNW 06:01:06 10° SW visible
22 Jan 2.8 05:14:44 10° NNE 05:19:50 88° WNW 05:24:54 10° SSW visible
23 Jan 4.4 04:38:17 10° NNE 04:42:57 36° E 04:47:34 10° SSE visible
23 Jan 4.2 06:18:07 10° NNW 06:21:37 19° WNW 06:25:07 10° WSW visible
24 Jan 5.7 04:03:11 10° ENE 04:05:53 14° E 04:08:35 10° SE visible
24 Jan 3.2 05:40:11 10° N 05:45:02 46° WNW 05:49:51 10° SW visible
25 Jan 3.1 05:03:11 10° NNE 05:08:15 71° ESE 05:13:18 10° S visible
26 Jan 4.8 04:27:01 10° NE 04:31:19 27° E 04:35:35 10° SSE visible
26 Jan 3.9 06:06:04 10° NNW 06:10:08 25° WNW 06:14:12 10° SW visible
27 Jan 6.0 03:53:24 10° E 03:54:12 10° E 03:55:01 10° ESE visible
27 Jan 2.9 05:28:29 10° N 05:33:29 61° WNW 05:38:28 10° SSW visible
28 Jan 3.6 04:51:42 10° NNE 04:56:39 53° E 05:01:35 10° S visible
28 Jan 4.6 06:32:46 10° NW 06:35:09 13° WNW 06:37:30 10° W visible
29 Jan 5.3 04:15:53 10° NE 04:19:39 21° E 04:23:25 10° SE visible
29 Jan 3.6 05:54:08 10° N 05:58:37 32° WNW 06:03:06 10° SW visible
